EW3326 Weather Reports


time (UTC)temp
C
wind
direction
speed
KPH
gust
KPH
rain 1hr
cm
rain 24hr
cm
rain mn
cm
humidity
%
barometer
mb
20260507050027 13 268 0.0 4.8 0.00 0.20 0.00 88 1004.8
20260507044511 13 311 1.6 12.9 0.00 0.20 0.00 89 1004.9
20260507043005 14 335 1.6 6.4 0.00 0.20 0.00 91 1004.8
20260507041504 14 167 0.0 6.4 0.00 0.20 0.00 93 1004.7
20260507040111 15 281 0.0 3.2 0.00 0.20 0.00 93 1004.8
20260507034607 15 206 0.0 4.8 0.00 0.20 0.20 93 1004.9
20260507033103 14 223 0.0 4.8 0.00 0.20 0.20 93 1004.6
20260507031558 14 204 1.6 6.4 0.00 0.20 0.20 93 1004.6
20260507030058 14 209 1.6 6.4 0.00 0.20 0.20 93 1004.3
20260507024557 14 148 1.6 4.8 0.00 0.20 0.20 93 1004.3
20260507023056 14 210 0.0 6.4 0.00 0.20 0.20 93 1004.4
20260507021605 14 210 0.0 4.8 0.00 0.20 0.20 93 1004.3
20260507020056 14 200 0.0 4.8 0.00 0.20 0.20 93 1004.5
20260507014558 14 219 1.6 4.8 0.00 0.20 0.20 93 1004.3
20260507013053 14 212 0.0 6.4 0.00 0.20 0.20 93 1004.4
20260507011557 14 211 1.6 4.8 0.00 0.20 0.20 93 1004.7
20260507010053 14 173 1.6 6.4 0.00 0.20 0.20 93 1004.7
20260507004553 13 204 1.6 6.4 0.00 0.20 0.20 93 1004.8
20260507003052 13 167 1.6 8.0 0.03 0.20 0.20 93 1004.6
20260507001554 13 195 1.6 6.4 0.03 0.20 0.20 93 1004.5
20260507000054 14 197 1.6 4.8 0.05 0.20 0.20 93 1004.4
20260506234605 14 208 0.0 4.8 0.05 0.20 0.20 92 1004.3
20260506233048 14 217 0.0 6.4 0.03 0.18 0.18 92 1004.3
20260506231547 14 207 1.6 4.8 0.03 0.18 0.18 92 1004.2
20260506230047 14 206 1.6 4.8 0.00 0.15 0.15 92 1004.2
20260506224547 14 207 1.6 6.4 0.00 0.15 0.15 92 1004.3
20260506223048 15 214 1.6 4.8 0.03 0.15 0.15 92 1004.4
20260506221542 15 212 3.2 6.4 0.05 0.15 0.15 91 1004.5
20260506220041 15 209 1.6 6.4 0.05 0.15 0.15 91 1004.7
20260506214543 15 216 1.6 6.4 0.05 0.15 0.15 90 1004.6
20260506213038 15 207 1.6 8.0 0.03 0.13 0.13 89 1004.9
20260506211537 15 208 3.2 9.7 0.03 0.10 0.10 88 1005.0
20260506210038 15 180 1.6 6.4 0.03 0.10 0.10 88 1005.0
20260506204548 16 203 1.6 6.4 0.03 0.10 0.10 87 1005.2
20260506203033 16 189 1.6 8.0 0.05 0.10 0.10 86 1005.4
20260506201535 16 217 3.2 9.7 0.05 0.08 0.08 86 1005.4
20260506200034 16 176 3.2 11.3 0.08 0.08 0.08 85 1005.3
20260506194533 16 201 1.6 6.4 0.08 0.08 0.08 83 1005.1
20260506193028 16 176 3.2 9.7 0.05 0.05 0.05 82 1005.5
20260506191528 17 214 0.0 9.7 0.03 0.03 0.03 79 1005.5
20260506190026 18 198 4.8 16.1 0.00 0.00 0.00 71 1005.4
20260506184525 19 219 1.6 11.3 0.00 0.00 0.00 68 1005.5
20260506183023 20 217 4.8 20.9 0.00 0.00 0.00 65 1005.6
20260506181527 20 173 4.8 12.9 0.00 0.00 0.00 60 1005.6
20260506180023 21 180 4.8 9.7 0.00 0.00 0.00 58 1005.5
20260506174522 21 262 4.8 16.1 0.00 0.00 0.00 57 1005.6
20260506173021 22 181 6.4 27.4 0.00 0.00 0.00 56 1005.9
20260506171533 22 188 4.8 11.3 0.00 0.00 0.00 55 1006.0
20260506170021 22 215 4.8 16.1 0.00 0.00 0.00 56 1005.7
20260506164519 22 174 4.8 11.3 0.00 0.00 0.00 57 1006.2
20260506163014 22 94 4.8 12.9 0.00 0.00 0.00 57 1006.4
20260506161513 22 139 3.2 12.9 0.00 0.00 0.00 58 1006.5
20260506160011 22 208 0.0 8.0 0.00 0.00 0.00 60 1006.8
20260506154509 21 221 4.8 16.1 0.00 0.00 0.00 58 1007.1
20260506153007 22 190 4.8 12.9 0.00 0.00 0.00 57 1007.3
20260506151506 22 173 3.2 17.7 0.00 0.00 0.00 57 1007.4
20260506150005 22 202 4.8 12.9 0.00 0.00 0.00 58 1007.7
20260506144619 21 202 4.8 16.1 0.00 0.00 0.00 60 1007.6
20260506143103 21 169 3.2 9.7 0.00 0.00 0.00 62 1007.4
20260506141557 21 198 0.0 9.7 0.00 0.00 0.00 66 1007.4
20260506134548 19 210 0.0 9.7 0.00 0.00 0.00 71 1007.5
20260506133047 18 185 0.0 6.4 0.00 0.00 0.00 72 1008.0
20260506131541 18 212 3.2 8.0 0.00 0.00 0.00 73 1008.3
20260506130038 18 217 1.6 11.3 0.00 0.00 0.00 75 1008.0
20260506124534 17 196 1.6 8.0 0.00 0.00 0.00 76 1008.1
20260506123036 17 202 1.6 4.8 0.00 0.00 0.00 78 1008.3
20260506121532 16 203 1.6 6.4 0.00 0.00 0.00 80 1008.3
20260506120032 16 205 1.6 6.4 0.00 0.00 0.00 80 1008.3
20260506114539 15 200 0.0 6.4 0.00 0.00 0.00 81 1008.5
20260506113029 15 207 1.6 6.4 0.00 0.00 0.00 81 1008.9
20260506111527 15 210 1.6 4.8 0.00 0.00 0.00 81 1008.6
20260506110029 15 220 0.0 4.8 0.00 0.00 0.00 82 1008.5
20260506104527 15 211 0.0 4.8 0.00 0.00 0.00 82 1008.5
20260506103025 15 207 0.0 6.4 0.00 0.00 0.00 82 1008.6
20260506101543 15 214 0.0 4.8 0.00 0.00 0.00 82 1008.7
20260506100023 15 205 0.0 4.8 0.00 0.00 0.00 82 1008.5
20260506094522 15 210 0.0 4.8 0.00 0.00 0.00 82 1008.3
20260506093020 15 198 0.0 6.4 0.00 0.00 0.00 81 1008.4
20260506091522 15 211 0.0 4.8 0.00 0.00 0.00 80 1008.4
20260506090020 15 187 0.0 6.4 0.00 0.00 0.00 80 1008.4
20260506084521 15 224 0.0 4.8 0.00 0.00 0.00 79 1008.6
20260506083017 15 209 1.6 6.4 0.00 0.00 0.00 79 1008.6
20260506081516 15 193 3.2 6.4 0.00 0.00 0.00 78 1008.6
20260506073011 16 219 1.6 8.0 0.00 0.00 0.00 76 1008.4
20260506071514 16 206 3.2 8.0 0.00 0.00 0.00 75 1008.4
20260506061502 17 208 3.2 12.9 0.00 0.00 0.00 70 1008.1